Council Bluffs, IA

8:51 AM CST on February 06, 2016 (GMT -0600)
Council Bluffs Municipal

Weather History for KCBF - July, 2013

Change the Weather History Date:

Saturday, July 13, 2013

  Actual Average Record
Temperature  
Mean Temperature 78 °F -  
Max Temperature 86 °F 84 °F 93 °F (2006)
Min Temperature 71 °F 66 °F 57 °F (2007)
Cooling Degree Days 14    
Growing Degree Days 28 (Base 50)    
Moisture  
Dew Point 67 °F    
Average Humidity 70    
Maximum Humidity 83    
Minimum Humidity 61    
Precipitation  
Precipitation 0.00 in - - ()
Sea Level Pressure  
Sea Level Pressure 29.98 in    
Wind  
Wind Speed 13 mph (SSE)    
Max Wind Speed 18 mph    
Max Gust Speed 24 mph    
Visibility 10 miles    
Events      
Averages and records for this station are not official NWS values.
T = Trace of Precipitation, MM = Missing Value Source: NWS Daily Summary

Daily Weather History Graph

Daily Weather History Graph

Search for Another Location

Airport or City:

Trip Planner

Search our weather history database for the weather conditions in past years. The results will help you decide how hot, cold, wet, or windy it might be!

Date:

Astronomy

Jul. 13, 2013 Rise Set
Actual Time 6:01 AM CDT 8:55 PM CDT
Civil Twilight 5:28 AM CDT 9:28 PM CDT
Nautical Twilight 4:47 AM CDT 10:09 PM CDT
Astronomical Twilight 3:58 AM CDT 10:57 PM CDT
Moon 11:22 AM CDT (7/13) 11:32 PM CDT (7/13)
Length of Visible Light 15h 59m
Length of Day
14h 53m
Waxing Crescent, 26% of the Moon is Illuminated
Jul 13
Waxing Crescent
Jul 15
First Quarter
Jul 22
Full
Jul 29
Last Quarter
Aug 6
New

Hourly Weather History & Observations

Time (CDT) Temp. Heat Index Dew Point Humidity Pressure Visibility Wind Dir Wind Speed Gust Speed Precip Events Conditions
12:15 AM 77.0 °F - 62.6 °F 61% 29.97 in 10.0 mi SSE 12.7 mph - N/A   Scattered Clouds
12:35 AM 77.0 °F - 62.6 °F 61% 29.97 in 10.0 mi SSE 13.8 mph - N/A   Scattered Clouds
12:55 AM 75.2 °F - 60.8 °F 61% 29.98 in 10.0 mi SSE 11.5 mph 17.3 mph N/A   Scattered Clouds
1:15 AM 75.2 °F - 62.6 °F 65% 29.98 in 10.0 mi SSE 9.2 mph - N/A   Mostly Cloudy
1:35 AM 75.2 °F - 60.8 °F 61% 29.98 in 10.0 mi SSE 11.5 mph - N/A   Unknown
1:55 AM 75.2 °F - 62.6 °F 65% 29.99 in 10.0 mi SSE 11.5 mph - N/A   Unknown
2:15 AM 75.2 °F - 62.6 °F 65% 29.99 in 10.0 mi SSE 10.4 mph - N/A   Mostly Cloudy
2:35 AM 73.4 °F - 62.6 °F 69% 29.99 in 10.0 mi SSE 12.7 mph - N/A   Scattered Clouds
2:55 AM 73.4 °F - 62.6 °F 69% 29.98 in 10.0 mi SSE 15.0 mph - N/A   Mostly Cloudy
3:15 AM 71.6 °F - 64.4 °F 78% 29.98 in 9.0 mi SSE 12.7 mph - N/A   Light Drizzle
3:35 AM 71.6 °F - 64.4 °F 78% 29.98 in 10.0 mi SSE 11.5 mph 17.3 mph N/A   Unknown
3:55 AM 71.6 °F - 62.6 °F 73% 29.97 in 10.0 mi SSE 13.8 mph 20.7 mph N/A   Scattered Clouds
4:15 AM 71.6 °F - 62.6 °F 73% 29.98 in 10.0 mi SSE 12.7 mph - N/A   Clear
4:35 AM 73.4 °F - 60.8 °F 65% 29.98 in 10.0 mi SSE 12.7 mph - N/A   Scattered Clouds
4:55 AM 73.4 °F - 60.8 °F 65% 29.97 in 10.0 mi SSE 13.8 mph - N/A   Partly Cloudy
5:15 AM 71.6 °F - 60.8 °F 69% 29.98 in 10.0 mi SSE 11.5 mph 19.6 mph N/A   Clear
5:35 AM 71.6 °F - 60.8 °F 69% 29.98 in 10.0 mi SSE 11.5 mph - N/A   Partly Cloudy
5:55 AM 73.4 °F - 60.8 °F 65% 29.98 in 10.0 mi North - - N/A   Mostly Cloudy
6:15 AM 73.4 °F - 60.8 °F 65% 29.98 in 10.0 mi SSE 15.0 mph - N/A   Mostly Cloudy
6:35 AM 71.6 °F - 60.8 °F 69% 29.98 in 10.0 mi SSE 13.8 mph - N/A   Mostly Cloudy
6:55 AM 71.6 °F - 60.8 °F 69% 29.98 in 10.0 mi SSE 15.0 mph - N/A   Scattered Clouds
7:15 AM 71.6 °F - 60.8 °F 69% 29.98 in 10.0 mi SSE 15.0 mph - N/A   Clear
7:35 AM 71.6 °F - 62.6 °F 73% 29.98 in 10.0 mi SSE 11.5 mph - N/A   Clear
7:55 AM 71.6 °F - 60.8 °F 69% 29.98 in 10.0 mi SSE 10.4 mph - N/A   Clear
8:15 AM 71.6 °F - 62.6 °F 73% 29.99 in 10.0 mi SSE 10.4 mph - N/A   Clear
8:35 AM 71.6 °F - 62.6 °F 73% 29.99 in 10.0 mi SSE 11.5 mph - N/A   Clear
8:55 AM 73.4 °F - 62.6 °F 69% 29.99 in 10.0 mi North - - N/A   Clear
9:15 AM 75.2 °F - 62.6 °F 65% 29.99 in 10.0 mi North - - N/A   Clear
9:35 AM 75.2 °F - 62.6 °F 65% 30.00 in 10.0 mi North - - N/A   Clear
9:55 AM 75.2 °F - 62.6 °F 65% 29.99 in 10.0 mi North - - N/A   Clear
10:15 AM 75.2 °F - 64.4 °F 69% 29.99 in 10.0 mi SSE 13.8 mph 19.6 mph N/A   Clear
10:35 AM 75.2 °F - 64.4 °F 69% 29.99 in 10.0 mi SSE 17.3 mph - N/A   Clear
10:55 AM 75.2 °F - 64.4 °F 69% 29.99 in 10.0 mi SSE 13.8 mph 19.6 mph N/A   Clear
11:15 AM 77.0 °F - 66.2 °F 69% 29.99 in 10.0 mi South 13.8 mph - N/A   Clear
11:35 AM 77.0 °F - 66.2 °F 69% 29.98 in 10.0 mi SSE 17.3 mph - N/A   Clear
11:55 AM 77.0 °F - 66.2 °F 69% 29.99 in 10.0 mi SSE 17.3 mph - N/A   Clear
12:15 PM 78.8 °F - 66.2 °F 65% 29.99 in 10.0 mi SE 17.3 mph - N/A   Clear
12:35 PM 78.8 °F - 68.0 °F 69% 29.99 in 10.0 mi SSE 11.5 mph 20.7 mph N/A   Clear
12:55 PM 80.6 °F 83.2 °F 68.0 °F 65% 29.99 in 10.0 mi SE 15.0 mph - N/A   Clear
1:15 PM 82.4 °F 86.3 °F 69.8 °F 66% 29.98 in 10.0 mi SSE 17.3 mph - N/A   Clear
1:35 PM 84.2 °F 88.4 °F 69.8 °F 62% 29.98 in 10.0 mi SE 17.3 mph - N/A   Clear
1:55 PM 84.2 °F 88.4 °F 69.8 °F 62% 29.97 in 10.0 mi SE 17.3 mph - N/A   Clear
2:15 PM 84.2 °F 89.6 °F 71.6 °F 66% 29.97 in 10.0 mi SE 16.1 mph - N/A   Clear
2:35 PM 82.4 °F 87.2 °F 71.6 °F 70% 29.97 in 10.0 mi SE 16.1 mph - N/A   Clear
2:55 PM 84.2 °F 89.6 °F 71.6 °F 66% 29.96 in 10.0 mi SSE 16.1 mph 21.9 mph N/A   Clear
3:15 PM 84.2 °F 90.9 °F 73.4 °F 70% 29.96 in 10.0 mi SSE 13.8 mph 19.6 mph N/A   Clear
3:35 PM 84.2 °F 90.9 °F 73.4 °F 70% 29.96 in 10.0 mi SE 13.8 mph - N/A   Clear
3:55 PM 84.2 °F 90.9 °F 73.4 °F 70% 29.96 in 10.0 mi SE 17.3 mph - N/A   Clear
4:15 PM 84.2 °F 89.6 °F 71.6 °F 66% 29.96 in 10.0 mi SSE 18.4 mph 24.2 mph N/A   Clear
4:35 PM 86.0 °F 95.1 °F 75.2 °F 70% 29.96 in 10.0 mi SSE 11.5 mph 18.4 mph N/A   Clear
4:55 PM 84.2 °F 92.3 °F 75.2 °F 74% 29.96 in 10.0 mi SE 11.5 mph 19.6 mph N/A   Clear
5:15 PM 82.4 °F 88.2 °F 73.4 °F 74% 29.96 in 10.0 mi SE 17.3 mph - N/A   Clear
5:35 PM 84.2 °F 90.9 °F 73.4 °F 70% 29.96 in 10.0 mi SSE 15.0 mph - N/A   Clear
5:55 PM 82.4 °F 88.2 °F 73.4 °F 74% 29.96 in 10.0 mi SE 15.0 mph - N/A   Clear
6:15 PM 82.4 °F 88.2 °F 73.4 °F 74% 29.95 in 10.0 mi SSE 15.0 mph - N/A   Clear
6:35 PM 82.4 °F 88.2 °F 73.4 °F 74% 29.95 in 10.0 mi SSE 13.8 mph - N/A   Clear
6:55 PM 82.4 °F 88.2 °F 73.4 °F 74% 29.94 in 10.0 mi SSE 15.0 mph - N/A   Clear
7:15 PM 82.4 °F 89.5 °F 75.2 °F 79% 29.94 in 10.0 mi SSE 11.5 mph - N/A   Clear
7:35 PM 82.4 °F 88.2 °F 73.4 °F 74% 29.95 in 10.0 mi SE 13.8 mph - N/A   Clear
7:55 PM 80.6 °F 85.4 °F 73.4 °F 79% 29.95 in 10.0 mi SE 15.0 mph 21.9 mph N/A   Clear
8:15 PM 80.6 °F 85.4 °F 73.4 °F 79% 29.96 in 10.0 mi SE 12.7 mph - N/A   Clear
8:35 PM 80.6 °F 84.6 °F 71.6 °F 74% 29.96 in 10.0 mi SE 12.7 mph 19.6 mph N/A   Clear
8:55 PM 78.8 °F - 71.6 °F 78% 29.97 in 10.0 mi SE 13.8 mph 19.6 mph N/A   Clear
9:15 PM 78.8 °F - 69.8 °F 74% 29.97 in 10.0 mi SE 16.1 mph 23.0 mph N/A   Partly Cloudy
9:35 PM 78.8 °F - 69.8 °F 74% 29.98 in 10.0 mi SE 15.0 mph 21.9 mph N/A   Clear
9:55 PM 77.0 °F - 68.0 °F 74% 29.98 in 10.0 mi SE 17.3 mph - N/A   Unknown
10:15 PM 77.0 °F - 68.0 °F 74% 29.98 in 10.0 mi SE 16.1 mph 21.9 mph N/A   Unknown
10:35 PM 75.2 °F - 69.8 °F 83% 29.99 in 10.0 mi SE 12.7 mph - N/A   Unknown
10:55 PM 75.2 °F - 68.0 °F 78% 29.99 in 10.0 mi SE 13.8 mph - N/A   Clear
11:15 PM 75.2 °F - 68.0 °F 78% 30.00 in 10.0 mi SE 13.8 mph - N/A   Unknown
11:35 PM 75.2 °F - 68.0 °F 78% 30.00 in 10.0 mi SE 15.0 mph - N/A   Unknown
11:55 PM 75.2 °F - 66.2 °F 73% 30.00 in 10.0 mi SE 15.0 mph - N/A   Clear